FLOCK 3R-1 (43747 NORAD) Tracking and Keplerian Element Data

This shows tracking and keplerian element data for the satellite.

Feedback or suggestion? Click here.




ElementValue
Catalog43747
NameFLOCK 3R-1
Epoch Orbit457
Epoch Day363.12958826
Epoch Year2018
RAAN68.182
Inclination97.4814
Eccentricity0.0020764
Argument of Perigee219.0486
Mean Anonmoly226.1998
Mean Motion15.26769217
Decay Rate7.24E-06
L11 43747U 18096AE 18363.12958826 .00000724 00000-0 30233-4 0 9999
L22 43747 97.4814 68.1820 0020764 219.0486 226.1998 15.26769217 4573

Live tracking and technical data element details for FLOCK 3R-1 (NORAD 43747). FLOCK 3R-1 can be tracked NOW for your location showing map with azimuth and elevation plus other details from your city location.

Track the satellite on the map from your city or location and see movement details for azimuth, elevation, latitude, longitude, range, height, and movement on the map or in text.







IsCatalogInMostPopularTable: catalog: 43747, numindb: 63
Update: records affected: 1



GetName: 43747 FLOCK 3R-1

Hit Count: updated at: Wed, 24 Apr 2019 18:47:38 GMT